FW7820 Weather Reports


Display with metric or nautical units.
time (UTC)temp
F
wind
direction
speed
MPH
gust
MPH
rain 1hr
in
rain 24hr
in
rain mn
in
humidity
%
barometer
mb
20260510182741 81 81 0.0 1.0 0.00 0.02 0.02 77 1015.5
20260510182236 81 17 0.0 1.0 0.00 0.02 0.02 76 1015.6
20260510181734 80 41 0.0 0.0 0.00 0.02 0.02 81 1015.8
20260510181231 80 357 0.0 0.0 0.00 0.02 0.02 81 1015.9
20260510180727 79 294 1.0 2.0 0.00 0.02 0.02 79 1015.9
20260510180224 78 42 1.0 1.0 0.00 0.02 0.02 80 1016.2
20260510175720 78 105 2.0 2.0 0.00 0.02 0.02 81 1016.2
20260510175216 79 92 0.0 0.0 0.00 0.02 0.02 86 1016.3
20260510174713 81 72 0.0 0.0 0.00 0.02 0.02 81 1016.4
20260510174211 79 347 0.0 0.0 0.00 0.02 0.02 84 1016.2
20260510173707 78 20 1.0 2.0 0.00 0.02 0.02 83 1016.4
20260510173203 78 322 0.0 1.0 0.00 0.02 0.02 86 1016.3
20260510172658 78 58 0.0 0.0 0.00 0.02 0.02 86 1016.6
20260510172154 77 53 0.0 0.0 0.00 0.02 0.02 87 1016.5
20260510171651 78 42 0.0 1.0 0.00 0.02 0.02 83 1016.5
20260510171149 77 11 0.0 0.0 0.00 0.02 0.02 85 1016.6
20260510170645 77 38 1.0 2.0 0.00 0.02 0.02 85 1016.7
20260510170142 76 80 0.0 1.0 0.00 0.02 0.02 85 1016.7
20260510165637 76 79 1.0 1.0 0.00 0.02 0.02 85 1016.8
20260510165133 76 12 1.0 1.0 0.00 0.02 0.02 86 1017.0
20260510164631 77 58 3.0 3.0 0.00 0.02 0.02 84 1016.9
20260510164128 77 55 0.0 0.0 0.00 0.02 0.02 88 1017.0
20260510163623 77 7 0.0 0.0 0.00 0.02 0.02 87 1017.1
20260510163120 75 353 1.0 1.0 0.00 0.02 0.02 88 1017.0
20260510162614 75 342 0.0 1.0 0.00 0.02 0.02 88 1017.0
20260510162111 76 4 4.0 5.0 0.00 0.02 0.02 85 1016.9
20260510161606 76 17 0.0 1.0 0.00 0.02 0.02 84 1017.1
20260510161104 75 76 0.0 1.0 0.00 0.02 0.02 88 1017.3
20260510160601 74 9 0.0 0.0 0.00 0.02 0.02 89 1017.3
20260510160100 74 349 3.0 3.0 0.00 0.02 0.02 88 1017.2
20260510155557 74 36 1.0 1.0 0.00 0.02 0.02 89 1017.2
20260510155054 73 315 1.0 1.0 0.00 0.02 0.02 90 1017.1
20260510154549 73 343 1.0 1.0 0.00 0.02 0.02 92 1017.3
20260510154045 72 13 0.0 0.0 0.00 0.02 0.02 96 1017.5
20260510153540 72 43 0.0 0.0 0.00 0.02 0.02 96 1017.4
20260510153037 71 329 0.0 1.0 0.00 0.02 0.02 95 1017.6
20260510152534 70 301 0.0 0.0 0.00 0.02 0.02 95 1017.2
20260510152030 70 359 1.0 2.0 0.00 0.02 0.02 96 1017.1
20260510151527 70 52 1.0 2.0 0.00 0.02 0.02 96 1017.2
20260510151024 70 0 1.0 1.0 0.00 0.02 0.02 97 1017.2
20260510150519 70 327 2.0 3.0 0.00 0.02 0.02 97 1017.0
20260510150015 70 359 2.0 2.0 0.00 0.02 0.02 98 1017.1
20260510145512 70 344 1.0 1.0 0.00 0.02 0.02 99 1017.3
20260510145003 70 23 0.0 1.0 0.00 0.02 0.02 99 1017.4
20260510144459 70 26 0.0 0.0 0.00 0.02 0.02 99 1017.2
20260510143955 69 48 0.0 1.0 0.00 0.02 0.02 98 1017.1
20260510143451 70 81 0.0 0.0 0.05 0.02 0.02 98 1017.0
20260510142948 70 87 0.0 1.0 0.12 0.02 0.02 98 1017.0
20260510142445 69 38 1.0 1.0 0.07 0.01 0.01 97 1017.0
20260510141941 70 359 0.0 1.0 0.00 0.00 0.00 96 1017.1
20260510141438 70 344 1.0 2.0 0.00 0.00 0.00 97 1017.1
20260510140935 70 28 1.0 1.0 0.00 0.00 0.00 98 1017.0
20260510140432 69 39 0.0 0.0 0.00 0.00 0.00 99 1016.7
20260510135930 69 44 0.0 0.0 0.00 0.00 0.00 99 1016.8
20260510135427 68 29 0.0 1.0 0.00 0.00 0.00 99 1016.7
20260510134924 68 20 0.0 0.0 0.00 0.00 0.00 99 1016.8
20260510134420 68 38 0.0 0.0 0.00 0.00 0.00 99 1016.7
20260510133917 68 81 0.0 1.0 0.00 0.00 0.00 99 1016.8
20260510133413 67 36 1.0 1.0 0.00 0.00 0.00 99 1016.4
20260510132908 67 43 0.0 0.0 0.00 0.00 0.00 99 1016.6
20260510132407 68 50 1.0 2.0 0.00 0.00 0.00 99 1016.3
20260510131903 68 56 1.0 1.0 0.00 0.00 0.00 99 1016.3
20260510131401 68 109 1.0 1.0 0.00 0.00 0.00 99 1016.4
20260510130857 67 31 1.0 1.0 0.00 0.00 0.00 99 1016.4
20260510130355 67 353 2.0 3.0 0.00 0.00 0.00 99 1016.1
20260510125851 67 347 0.0 1.0 0.00 0.00 0.00 99 1016.1
20260510125347 66 314 1.0 2.0 0.00 0.00 0.00 99 1016.1
20260510124844 66 34 0.0 0.0 0.00 0.00 0.00 99 1016.2
20260510124341 65 8 1.0 1.0 0.00 0.00 0.00 99 1015.8
20260510123837 66 1 1.0 2.0 0.00 0.00 0.00 99 1016.1
20260510123332 65 37 1.0 2.0 0.00 0.00 0.00 99 1015.7
20260510122829 65 24 0.0 0.0 0.00 0.00 0.00 99 1015.8
20260510122325 65 16 0.0 0.0 0.00 0.00 0.00 99 1015.6
20260510121822 65 0 1.0 1.0 0.00 0.00 0.00 99 1015.8
20260510121319 65 11 0.0 0.0 0.00 0.00 0.00 99 1016.0
20260510120816 65 7 0.0 0.0 0.00 0.00 0.00 99 1015.6
20260510120313 65 48 0.0 1.0 0.00 0.00 0.00 99 1015.5
20260510115808 65 22 0.0 0.0 0.00 0.00 0.00 99 1015.3
20260510115307 65 353 0.0 1.0 0.00 0.00 0.00 99 1015.5
20260510114802 65 48 0.0 0.0 0.00 0.00 0.00 99 1015.2
20260510114259 65 7 0.0 0.0 0.00 0.00 0.00 99 1015.4
20260510113755 65 352 3.0 3.0 0.00 0.00 0.00 99 1015.1
20260510113252 65 335 1.0 1.0 0.00 0.00 0.00 99 1015.1
20260510112747 65 357 1.0 1.0 0.00 0.00 0.00 99 1015.0
20260510112244 65 0 0.0 1.0 0.00 0.00 0.00 99 1014.7
20260510111740 65 22 0.0 0.0 0.00 0.00 0.00 99 1014.7
20260510111237 65 343 1.0 1.0 0.00 0.00 0.00 99 1014.7
20260510110737 65 3 0.0 0.0 0.00 0.00 0.00 99 1014.6
20260510110235 64 320 1.0 1.0 0.00 0.00 0.00 99 1014.6
20260510105734 64 65 0.0 0.0 0.00 0.00 0.00 99 1014.4
20260510105229 64 17 0.0 0.0 0.00 0.00 0.00 99 1014.3
20260510104726 64 5 0.0 0.0 0.00 0.00 0.00 99 1014.3
20260510104224 64 354 0.0 0.0 0.00 0.00 0.00 99 1014.2
20260510103720 64 34 0.0 0.0 0.00 0.00 0.00 99 1014.1
20260510103217 64 26 0.0 0.0 0.00 0.00 0.00 99 1014.0
20260510102717 64 32 0.0 0.0 0.00 0.00 0.00 99 1014.1
20260510102213 64 33 0.0 0.0 0.00 0.00 0.00 99 1014.0
20260510101711 64 30 0.0 0.0 0.00 0.00 0.00 99 1013.9
20260510101209 64 19 0.0 0.0 0.00 0.00 0.00 99 1013.8
20260510100704 64 15 0.0 0.0 0.00 0.00 0.00 99 1013.9
20260510100202 64 359 0.0 1.0 0.00 0.00 0.00 99 1013.8
20260510095657 64 13 0.0 0.0 0.00 0.00 0.00 99 1013.6
20260510095153 64 357 0.0 1.0 0.00 0.00 0.00 99 1013.6
20260510094651 64 6 0.0 1.0 0.00 0.00 0.00 99 1013.7
20260510094148 64 44 0.0 0.0 0.00 0.00 0.00 99 1013.7
20260510093644 64 43 0.0 0.0 0.00 0.00 0.00 99 1013.6
20260510093141 64 47 0.0 0.0 0.00 0.00 0.00 99 1013.6
20260510092638 64 34 0.0 0.0 0.00 0.00 0.00 99 1013.5
20260510092133 64 44 0.0 0.0 0.00 0.00 0.00 99 1013.6
20260510091629 64 43 0.0 0.0 0.00 0.00 0.00 99 1013.4
20260510091125 64 44 0.0 0.0 0.00 0.00 0.00 99 1013.7
20260510090623 64 44 0.0 0.0 0.00 0.00 0.00 99 1013.8
20260510090119 64 34 0.0 0.0 0.00 0.00 0.00 99 1013.9
20260510085614 64 34 0.0 0.0 0.00 0.00 0.00 99 1013.9
20260510085109 64 33 0.0 0.0 0.00 0.00 0.00 99 1013.9
20260510084606 64 33 0.0 0.0 0.00 0.00 0.00 99 1013.6
20260510084103 64 33 0.0 0.0 0.00 0.00 0.00 99 1013.6
20260510083559 64 33 0.0 0.0 0.00 0.00 0.00 99 1013.7
20260510083055 64 33 0.0 0.0 0.00 0.00 0.00 99 1013.8
20260510082553 64 33 0.0 0.0 0.00 0.00 0.00 99 1013.6
20260510082048 64 33 0.0 0.0 0.00 0.00 0.00 99 1013.6
20260510081543 64 33 0.0 0.0 0.00 0.00 0.00 99 1013.6
20260510081039 64 33 0.0 0.0 0.00 0.00 0.00 99 1013.4
20260510080538 64 33 0.0 0.0 0.00 0.00 0.00 99 1013.5
20260510080035 64 50 0.0 0.0 0.00 0.00 0.00 99 1013.3
20260510075533 64 49 0.0 0.0 0.00 0.00 0.00 99 1013.1
20260510075029 64 57 0.0 0.0 0.00 0.00 0.00 99 1013.3
20260510074527 64 36 0.0 0.0 0.00 0.00 0.00 99 1013.1
20260510074022 64 36 0.0 0.0 0.00 0.00 0.00 99 1012.9
20260510073518 64 36 0.0 0.0 0.00 0.00 0.00 99 1013.1
20260510073016 64 44 0.0 0.0 0.00 0.00 0.00 99 1013.2
20260510072512 64 44 0.0 0.0 0.00 0.00 0.00 99 1013.0
20260510072008 63 43 0.0 0.0 0.00 0.00 0.00 99 1013.2
20260510071504 63 51 0.0 0.0 0.00 0.00 0.00 99 1013.1
20260510071003 63 56 0.0 0.0 0.00 0.00 0.00 99 1013.0
20260510070459 63 43 0.0 0.0 0.00 0.00 0.00 99 1013.1
20260510065955 63 43 0.0 0.0 0.00 0.00 0.00 99 1013.0
20260510065452 63 50 0.0 0.0 0.00 0.00 0.00 99 1013.2
20260510064948 63 50 0.0 0.0 0.00 0.00 0.00 99 1013.0
20260510064446 62 50 0.0 0.0 0.00 0.00 0.00 99 1013.1
20260510063942 62 51 0.0 0.0 0.00 0.00 0.00 99 1013.1
20260510063438 63 52 0.0 0.0 0.00 0.00 0.00 99 1012.9
20260510062937 63 52 0.0 0.0 0.00 0.00 0.00 99 1012.9
20260510062437 62 42 0.0 0.0 0.00 0.00 0.00 99 1013.2
20260510061932 63 34 0.0 0.0 0.00 0.00 0.00 99 1013.0
20260510061429 63 45 0.0 0.0 0.00 0.00 0.00 99 1013.0
20260510060925 63 61 0.0 0.0 0.00 0.00 0.00 99 1012.7
20260510060422 63 16 0.0 0.0 0.00 0.00 0.00 99 1013.2
20260510055919 63 70 0.0 0.0 0.00 0.00 0.00 99 1012.9
20260510055415 63 34 0.0 0.0 0.00 0.00 0.00 99 1012.9
20260510054913 64 34 0.0 0.0 0.00 0.00 0.00 99 1013.0
20260510054408 64 34 0.0 0.0 0.00 0.00 0.00 99 1012.8
20260510053903 64 50 0.0 0.0 0.00 0.00 0.00 99 1012.9
20260510053359 64 58 0.0 0.0 0.00 0.00 0.00 99 1012.8
20260510052855 64 52 0.0 0.0 0.00 0.00 0.00 99 1012.9
20260510052351 64 53 0.0 0.0 0.00 0.00 0.00 99 1013.1
20260510051847 64 47 0.0 0.0 0.00 0.00 0.00 99 1013.0
20260510051344 64 52 0.0 0.0 0.00 0.00 0.00 99 1012.9
20260510050841 64 50 0.0 0.0 0.00 0.00 0.00 99 1012.9
20260510050338 64 63 0.0 0.0 0.00 0.00 0.00 99 1012.9
20260510045835 64 56 0.0 0.0 0.00 0.89 0.89 99 1013.1
20260510045331 64 58 0.0 0.0 0.00 0.89 0.89 99 1012.9
20260510044829 64 63 0.0 0.0 0.00 0.89 0.89 99 1012.8
20260510044326 64 34 0.0 0.0 0.00 0.89 0.89 99 1013.2
20260510043822 64 34 0.0 0.0 0.00 0.89 0.89 99 1013.3
20260510043318 64 34 0.0 0.0 0.00 0.89 0.89 99 1013.2
20260510042816 64 34 0.0 0.0 0.00 0.89 0.89 99 1013.3
20260510042312 64 34 0.0 0.0 0.00 0.89 0.89 99 1013.4
20260510041808 64 30 0.0 0.0 0.00 0.89 0.89 99 1013.4
20260510041306 64 44 0.0 0.0 0.00 0.89 0.89 99 1013.3
20260510040803 64 63 0.0 0.0 0.00 0.89 0.89 99 1013.6
20260510040259 64 65 0.0 0.0 0.00 0.89 0.89 99 1013.5
20260510035755 64 63 0.0 0.0 0.00 0.89 0.89 99 1013.7
20260510035251 64 63 0.0 0.0 0.00 0.89 0.89 99 1013.8
20260510034747 64 64 0.0 0.0 0.00 0.89 0.89 99 1013.7
20260510034245 64 66 0.0 0.0 0.00 0.89 0.89 99 1013.7
20260510033741 64 58 0.0 0.0 0.00 0.89 0.89 99 1013.8
20260510033238 64 64 0.0 0.0 0.00 0.89 0.89 99 1013.7
20260510032734 64 58 0.0 0.0 0.00 0.89 0.89 99 1013.8
20260510032231 64 59 0.0 0.0 0.00 0.89 0.89 99 1013.7
20260510031725 64 59 0.0 0.0 0.00 0.89 0.89 99 1013.7
20260510031222 65 52 0.0 0.0 0.00 0.89 0.89 99 1013.6
20260510030721 65 50 0.0 0.0 0.00 0.89 0.89 99 1013.5
20260510030219 64 50 0.0 0.0 0.00 0.89 0.89 99 1013.2
20260510025716 65 51 0.0 0.0 0.00 0.89 0.89 99 1013.1
20260510025214 64 68 0.0 0.0 0.00 0.89 0.89 99 1013.4
20260510024710 64 63 0.0 0.0 0.00 0.89 0.89 99 1013.6
20260510024207 64 63 0.0 0.0 0.00 0.89 0.89 99 1013.7
20260510023702 64 45 0.0 0.0 0.00 0.89 0.89 99 1013.5
20260510023200 65 49 0.0 0.0 0.00 0.89 0.89 99 1013.4
20260510022656 65 63 0.0 0.0 0.00 0.89 0.89 99 1013.2
20260510022150 65 65 0.0 0.0 0.00 0.89 0.89 99 1013.3
20260510021646 65 58 0.0 0.0 0.00 0.89 0.89 99 1013.6
20260510021144 65 57 0.0 0.0 0.00 0.89 0.89 99 1013.6
20260510020638 65 63 0.0 0.0 0.00 0.89 0.89 99 1013.7
20260510020133 65 67 0.0 0.0 0.00 0.89 0.89 99 1013.7
20260510015630 65 39 0.0 0.0 0.00 0.89 0.89 99 1013.7
20260510015126 65 63 0.0 0.0 0.00 0.89 0.89 99 1013.5
20260510014621 65 30 0.0 0.0 0.00 0.89 0.89 99 1013.5
20260510014120 65 20 0.0 0.0 0.00 0.89 0.89 99 1013.2
20260510013619 65 35 0.0 0.0 0.00 0.89 0.89 99 1013.4
20260510013115 65 35 0.0 0.0 0.00 0.89 0.89 99 1013.4
20260510012614 65 35 0.0 0.0 0.00 0.89 0.89 99 1013.1
20260510012111 65 3 0.0 0.0 0.00 0.89 0.89 99 1013.2
20260510011610 65 21 0.0 0.0 0.00 0.89 0.89 99 1012.9
20260510011107 65 38 0.0 0.0 0.00 0.89 0.89 99 1012.7
20260510010603 65 47 0.0 0.0 0.00 0.89 0.89 99 1012.7
20260510010101 65 43 0.0 0.0 0.00 0.89 0.89 99 1012.5
20260510005556 65 53 0.0 0.0 0.00 0.89 0.89 99 1012.8
20260510005054 65 48 0.0 0.0 0.00 0.89 0.89 99 1012.8
20260510004552 65 50 0.0 0.0 0.00 0.89 0.89 99 1012.7
20260510004049 65 11 0.0 0.0 0.00 0.89 0.89 99 1012.8
20260510003546 65 68 0.0 0.0 0.00 0.89 0.89 99 1012.7
20260510003041 66 55 0.0 0.0 0.00 0.89 0.89 99 1013.0
20260510002537 66 35 0.0 0.0 0.00 0.89 0.89 99 1012.6
20260510002034 65 86 1.0 1.0 0.00 0.89 0.89 99 1012.6
20260510001531 65 338 1.0 1.0 0.00 0.89 0.89 99 1012.4
20260510001030 65 55 0.0 0.0 0.00 0.89 0.89 99 1011.9
20260510000524 65 56 0.0 0.0 0.00 0.89 0.89 99 1012.1
20260510000021 66 10 0.0 0.0 0.00 0.89 0.89 99 1012.3
20260509235518 66 45 0.0 0.0 0.00 0.89 0.89 99 1012.2
20260509235015 65 45 0.0 0.0 0.00 0.89 0.89 99 1012.3
20260509234511 66 42 0.0 0.0 0.00 0.89 0.89 99 1012.3
20260509234009 66 48 0.0 0.0 0.00 0.89 0.89 99 1011.9
20260509233507 66 59 0.0 0.0 0.00 0.89 0.89 99 1012.0
20260509233004 66 63 0.0 0.0 0.00 0.89 0.89 99 1012.0
20260509232500 66 48 0.0 0.0 0.00 0.89 0.89 99 1012.2
20260509231956 66 70 0.0 0.0 0.00 0.89 0.89 99 1012.2
20260509231453 66 61 0.0 0.0 0.00 0.89 0.89 99 1012.2
20260509230951 66 63 0.0 0.0 0.00 0.89 0.89 99 1012.3
20260509230447 66 54 0.0 0.0 0.00 0.89 0.89 99 1012.1
20260509225944 66 45 0.0 0.0 0.00 0.89 0.89 99 1012.0
20260509225440 66 46 0.0 0.0 0.00 0.89 0.89 99 1012.0
20260509224936 66 40 0.0 0.0 0.00 0.89 0.89 99 1011.8
20260509224431 66 51 0.0 0.0 0.00 0.89 0.89 99 1011.5
20260509223929 66 45 0.0 0.0 0.00 0.89 0.89 99 1011.8
20260509223425 66 57 0.0 0.0 0.00 0.89 0.89 99 1011.9
20260509222923 66 43 0.0 0.0 0.00 0.89 0.89 99 1011.6
20260509222418 67 58 0.0 0.0 0.00 0.89 0.89 99 1011.5
20260509221914 67 58 0.0 0.0 0.00 0.89 0.89 99 1011.4
20260509221411 66 58 0.0 0.0 0.00 0.89 0.89 99 1011.6
20260509220907 66 58 0.0 0.0 0.00 0.89 0.89 99 1011.4
20260509220403 66 54 0.0 0.0 0.00 0.89 0.89 99 1011.4
20260509215858 66 54 0.0 0.0 0.00 0.89 0.89 99 1011.3
20260509215355 66 54 0.0 0.0 0.00 0.89 0.89 99 1011.2
20260509214852 66 46 0.0 0.0 0.00 0.89 0.89 99 1011.2
20260509214349 66 44 0.0 0.0 0.00 0.89 0.89 99 1011.2
20260509213846 66 52 0.0 0.0 0.00 0.89 0.89 99 1011.1
20260509213341 66 63 0.0 0.0 0.00 0.89 0.89 99 1011.0
20260509212839 66 68 0.0 0.0 0.00 0.89 0.89 99 1011.1
20260509212337 66 52 0.0 0.0 0.00 0.89 0.89 99 1011.1
20260509211832 66 39 0.0 0.0 0.00 0.89 0.89 99 1011.0
20260509211328 66 61 0.0 0.0 0.00 0.89 0.89 99 1011.1
20260509210825 66 71 0.0 0.0 0.00 0.89 0.89 99 1011.2
20260509210323 66 71 0.0 0.0 0.00 0.89 0.89 99 1011.1
20260509205822 66 42 0.0 0.0 0.00 0.89 0.89 99 1011.4
20260509205317 66 44 0.0 0.0 0.00 0.89 0.89 99 1011.4
20260509204814 66 68 0.0 0.0 0.00 0.89 0.89 99 1011.5
20260509204310 66 68 0.0 0.0 0.00 0.89 0.89 99 1011.7
20260509203807 66 68 0.0 0.0 0.00 0.89 0.89 99 1011.4
20260509203304 66 89 0.0 1.0 0.00 0.89 0.89 99 1011.7
20260509202800 66 81 0.0 0.0 0.00 0.89 0.89 99 1011.8
20260509202256 66 67 0.0 0.0 0.00 0.89 0.89 99 1012.0
20260509201755 66 73 0.0 0.0 0.00 0.89 0.89 99 1011.8
20260509201252 66 77 0.0 0.0 0.00 0.89 0.89 99 1011.7
20260509200749 67 62 0.0 0.0 0.00 0.89 0.89 99 1011.8
20260509200244 66 55 0.0 0.0 0.00 0.89 0.89 99 1011.6
20260509195740 66 62 0.0 0.0 0.00 0.89 0.89 99 1011.5
20260509195236 66 53 0.0 0.0 0.00 0.89 0.89 99 1011.8
20260509194731 67 65 0.0 0.0 0.00 0.89 0.89 99 1011.7
20260509194227 67 55 0.0 0.0 0.00 0.89 0.89 99 1011.6
20260509193724 66 60 0.0 0.0 0.00 0.89 0.89 99 1011.7
20260509193224 66 62 0.0 0.0 0.00 0.89 0.89 99 1011.8
20260509192720 66 76 0.0 0.0 0.00 0.89 0.89 99 1012.0
20260509192215 66 76 0.0 0.0 0.00 0.89 0.89 99 1012.1
20260509191711 66 74 0.0 0.0 0.00 0.89 0.89 99 1012.2
20260509191207 66 78 0.0 0.0 0.00 0.89 0.89 99 1012.2
20260509190704 66 74 0.0 0.0 0.00 0.89 0.89 99 1012.1
20260509190201 66 71 0.0 0.0 0.00 0.89 0.89 99 1012.4
20260509185659 66 80 0.0 0.0 0.00 0.89 0.89 99 1012.2
20260509185154 67 64 0.0 0.0 0.00 0.89 0.89 99 1012.1
20260509184652 67 51 0.0 0.0 0.00 0.89 0.89 99 1011.9
20260509184149 67 18 0.0 0.0 0.00 0.89 0.89 99 1012.0
20260509183645 67 71 0.0 0.0 0.00 0.89 0.89 99 1011.9
20260509183140 67 71 0.0 0.0 0.00 0.89 0.89 99 1011.9